User: anonymous   Login
Location: Unspecified
(0.0000°N, 0.0000°E)
Time: 20:03:58
(UTC+00:00)
Language:

OBJECT CG - Orbit

View from above orbital plane
View from above orbital plane
View from above satellite
View from above satellite

Ground track
Ground track

The orbit is defined by the following mean orbital elements,

1 66744U          26144.77586562 +.00000000 +00000-0 +94015-4 0 00006
2 66744  97.4211 218.5488 0004521  87.8940 272.2812 15.18224402    00
Epoch (UTC): 24 May 2026 18:37:14
Eccentricity: 0.0004521
inclination: 97.4211°
perigee height: 508 km
apogee height: 514 km
right ascension of ascending node: 218.5488°
argument of perigee: 87.8940°
revolutions per day: 15.18224402
mean anomaly at epoch: 272.2812°

The dashed part of the orbit path shows where the satellite is in the earth's shadow,  

DLR